Weather History for Noatak, AK

Change the Weather History Date:

Saturday, December 28, 2013

  Actual Average Record
Temperature  
Mean Temperature -27 °F -  
Max Temperature -16 °F 0 °F 24 °F (2012)
Min Temperature -38 °F -8 °F -45 °F (1999)
Degree Days  
Heating Degree Days 92    
Moisture  
Dew Point -27 °F    
Average Humidity 67    
Maximum Humidity 76    
Minimum Humidity 63    
Precipitation  
Precipitation 0.00 in - - ()
Sea Level Pressure  
Sea Level Pressure 30.15 in    
Wind  
Wind Speed 1 mph (NNE)    
Max Wind Speed 7 mph    
Max Gust Speed -    
Visibility 7 miles    
Events      
Averages and records for this station are not official NWS values.
T = Trace of Precipitation, MM = Missing Value Source: NWS Daily Summary

Daily Weather History Graph

Daily Weather History Graph

Search for Another Location

Airport:

Trip Planner

Search our weather history database for the weather conditions in past years. The results will help you decide how hot, cold, wet, or windy it might be!

Date:

Astronomy

Dec. 28, 2013 Rise Set
Actual Time 1:39 PM AKST 2:07 PM AKST
Civil Twilight 11:05 AM AKST 4:42 PM AKST
Nautical Twilight 9:39 AM AKST 6:07 PM AKST
Astronomical Twilight 8:30 AM AKST 7:17 PM AKST
Moon 7:06 AM AKST (12/28) 1:25 PM AKST (12/28)
Length of Visible Light 5h 37m
Length of Day
0h 27m
Waning Crescent, 17% of the Moon is Illuminated
Dec 28
Waning Crescent
Jan 1
New
Jan 7
First Quarter
Jan 15
Full
Jan 23
Last Quarter

Hourly Weather History & Observations

Time (AKST) Temp. Windchill Dew Point Humidity Pressure Visibility Wind Dir Wind Speed Gust Speed Precip Events Conditions
12:16 AM -29.2 °F - - N/A% 30.30 in 9.0 mi Calm Calm - N/A   Clear
12:36 AM -29.2 °F - - N/A% 30.29 in 10.0 mi Calm Calm - N/A   Clear
12:56 AM -29.2 °F - - N/A% 30.29 in 10.0 mi Calm Calm - N/A   Clear
1:16 AM -27.4 °F - - N/A% 30.29 in 10.0 mi Calm Calm - N/A   Clear
1:36 AM -29.2 °F - - N/A% 30.28 in 10.0 mi Calm Calm - N/A   Clear
1:56 AM -32.8 °F - - N/A% 30.28 in 10.0 mi Calm Calm - N/A   Clear
2:16 AM -29.2 °F - - N/A% 30.28 in 10.0 mi Calm Calm - N/A   Clear
2:36 AM -32.8 °F -45.3 °F - N/A% 30.27 in 10.0 mi NW 3.5 mph - N/A   Clear
2:56 AM -27.4 °F - - N/A% 30.27 in 10.0 mi Calm Calm - N/A   Clear
3:16 AM -29.2 °F - - N/A% 30.27 in 7.0 mi Calm Calm - N/A   Clear
3:36 AM -34.6 °F -47.4 °F - N/A% 30.26 in 1.8 mi East 3.5 mph - N/A   Clear
3:56 AM -29.2 °F - - N/A% 30.26 in 10.0 mi Calm Calm - N/A   Clear
4:16 AM -32.8 °F - - N/A% 30.25 in 7.0 mi Calm Calm - N/A   Clear
4:36 AM -31.0 °F - - N/A% 30.25 in 5.0 mi Calm Calm - N/A   Clear
4:56 AM -29.2 °F - - N/A% 30.24 in 5.0 mi Calm Calm - N/A   Clear
5:16 AM -32.8 °F -45.3 °F - N/A% 30.23 in 10.0 mi NNE 3.5 mph - N/A   Clear
5:36 AM -32.8 °F -52.4 °F - N/A% 30.23 in 10.0 mi North 6.9 mph - N/A   Clear
5:56 AM -32.8 °F -45.3 °F - N/A% 30.23 in 2.5 mi North 3.5 mph - N/A   Clear
6:16 AM -32.8 °F - - N/A% 30.22 in 4.0 mi Calm Calm - N/A   Clear
6:36 AM -34.6 °F - - N/A% 30.22 in 1.0 mi Calm Calm - N/A   Clear
6:56 AM -36.4 °F - - N/A% 30.22 in 1.0 mi Calm Calm - N/A   Clear
7:16 AM -34.6 °F - - N/A% 30.21 in 3.0 mi Calm Calm - N/A   Clear
7:36 AM -32.8 °F -45.3 °F - N/A% 30.20 in 10.0 mi ENE 3.5 mph - N/A   Clear
7:56 AM -34.6 °F -50.3 °F - N/A% 30.20 in 9.0 mi East 4.6 mph - N/A   Clear
8:16 AM -36.4 °F - - N/A% 30.20 in 1.0 mi Calm Calm - N/A   Clear
8:36 AM -34.6 °F - - N/A% 30.19 in 10.0 mi Calm Calm - N/A   Clear
8:56 AM -38.2 °F - - N/A% 30.19 in 10.0 mi Calm Calm - N/A   Clear
9:16 AM -34.6 °F - - N/A% 30.18 in 10.0 mi Calm Calm - N/A   Clear
9:36 AM -31.0 °F - - N/A% 30.17 in 10.0 mi Calm Calm - N/A   Clear
9:56 AM -32.8 °F - - N/A% 30.17 in 10.0 mi Calm Calm - N/A   Clear
10:16 AM -31.0 °F - - N/A% 30.17 in 10.0 mi Calm Calm - N/A   Clear
10:36 AM -32.8 °F - - N/A% 30.16 in 9.0 mi Calm Calm - N/A   Clear
10:56 AM -27.4 °F -39.2 °F - N/A% 30.15 in 10.0 mi NW 3.5 mph - N/A   Clear
11:16 AM -38.2 °F - - N/A% 30.15 in 0.8 mi Calm Calm - N/A   Unknown
11:36 AM -36.4 °F - - N/A% 30.15 in 2.0 mi Calm Calm - N/A   Clear
11:56 AM -34.6 °F -47.4 °F - N/A% 30.15 in 8.0 mi SW 3.5 mph - N/A   Clear
12:16 PM -36.4 °F - - N/A% 30.15 in 10.0 mi Calm Calm - N/A   Clear
12:36 PM -34.6 °F - - N/A% 30.14 in 10.0 mi Calm Calm - N/A   Clear
12:56 PM -34.6 °F - - N/A% 30.14 in 7.0 mi Calm Calm - N/A   Clear
1:16 PM -34.6 °F - - N/A% 30.13 in 1.2 mi Calm Calm - N/A   Clear
1:36 PM -34.6 °F - - N/A% 30.12 in 3.0 mi Calm Calm - N/A   Clear
1:56 PM -36.4 °F - - N/A% 30.12 in 0.2 mi Calm Calm - N/A   Unknown
2:16 PM -32.8 °F - - N/A% 30.12 in 2.5 mi Calm Calm - N/A   Clear
2:36 PM -32.8 °F - - N/A% 30.11 in 5.0 mi Calm Calm - N/A   Clear
2:56 PM -36.4 °F - - N/A% 30.11 in 0.2 mi Calm Calm - N/A   Unknown
3:16 PM -36.4 °F - - N/A% 30.11 in 0.8 mi Calm Calm - N/A   Unknown
3:36 PM -38.2 °F - - N/A% 30.11 in 1.5 mi Calm Calm - N/A   Clear
3:56 PM -36.4 °F - - N/A% 30.10 in 3.0 mi Calm Calm - N/A   Clear
4:16 PM -32.8 °F - - N/A% 30.10 in 10.0 mi Calm Calm - N/A   Clear
4:36 PM -34.6 °F - - N/A% 30.09 in 5.0 mi Calm Calm - N/A   Clear
4:56 PM -34.6 °F - - N/A% 30.08 in 1.8 mi Calm Calm - N/A   Clear
5:16 PM -34.6 °F -47.4 °F - N/A% 30.08 in 1.8 mi NE 3.5 mph - N/A   Scattered Clouds
5:36 PM -34.6 °F - - N/A% 30.08 in 2.5 mi Calm Calm - N/A   Mostly Cloudy
5:56 PM -31.0 °F - - N/A% 30.08 in 2.0 mi Calm Calm - N/A   Overcast
6:16 PM -29.2 °F - - N/A% 30.07 in 3.0 mi Calm Calm - N/A   Overcast
6:36 PM -29.2 °F - - N/A% 30.07 in 5.0 mi Calm Calm - N/A   Overcast
6:56 PM -27.4 °F - - N/A% 30.07 in 6.0 mi Calm Calm - N/A   Overcast
7:16 PM -25.6 °F - - N/A% 30.07 in 10.0 mi Calm Calm - N/A   Overcast
7:36 PM -23.8 °F - -29.2 °F 76% 30.06 in 8.0 mi Calm Calm - N/A   Overcast
7:56 PM -22.0 °F - - N/A% 30.06 in 10.0 mi Calm Calm - N/A   Overcast
8:16 PM -22.0 °F - -29.2 °F 69% 30.06 in 10.0 mi Calm Calm - N/A   Overcast
8:36 PM -20.2 °F - -29.2 °F 63% 30.06 in 10.0 mi Calm Calm - N/A   Overcast
8:56 PM -20.2 °F - -29.2 °F 63% 30.05 in 10.0 mi Calm Calm - N/A   Overcast
9:16 PM -20.2 °F - -27.4 °F 69% 30.05 in 10.0 mi Calm Calm - N/A   Overcast
9:36 PM -20.2 °F - -27.4 °F 69% 30.05 in 10.0 mi Calm Calm - N/A   Overcast
9:56 PM -18.4 °F - -27.4 °F 63% 30.05 in 10.0 mi Calm Calm - N/A   Overcast
10:16 PM -18.4 °F - -25.6 °F 70% 30.05 in 8.0 mi Calm Calm - N/A   Overcast
10:36 PM -18.4 °F - -27.4 °F 63% 30.05 in 10.0 mi Calm Calm - N/A   Overcast
10:56 PM -16.6 °F - -25.6 °F 64% 30.04 in 5.0 mi Calm Calm - N/A   Overcast
11:16 PM -16.6 °F - -23.8 °F 70% 30.05 in 7.0 mi Calm Calm - N/A   Overcast
11:36 PM -16.6 °F - -25.6 °F 64% 30.04 in 7.0 mi Calm Calm - N/A   Overcast
11:56 PM -16.6 °F - -23.8 °F 70% 30.04 in 7.0 mi Calm Calm - N/A   Overcast